FW6934 Weather Reports


time (UTC)temp
C
wind
direction
speed
KPH
gust
KPH
rain 1hr
cm
rain 24hr
cm
rain mn
cm
humidity
%
barometer
mb
20260906050004 14 297 1.6 4.8 0.00 0.03 0.03 79 1003.4
20260906045556 14 298 1.6 4.8 0.00 0.03 0.03 79 1003.4
20260906045043 14 281 1.6 4.8 0.00 0.03 0.03 78 1003.5
20260906044504 14 235 1.6 4.8 0.00 0.03 0.03 78 1003.5
20260906044053 14 232 0.0 4.8 0.00 0.03 0.03 77 1003.5
20260906043542 14 232 1.6 4.8 0.00 0.03 0.03 77 1003.5
20260906043015 15 223 3.2 4.8 0.00 0.03 0.03 77 1003.6
20260906042602 15 226 1.6 4.8 0.00 0.03 0.03 76 1003.6
20260906042049 15 294 0.0 8.0 0.00 0.03 0.03 76 1003.7
20260906041058 15 258 0.0 1.6 0.00 0.03 0.03 76 1003.6
20260906040609 15 258 0.0 3.2 0.00 0.03 0.03 75 1003.5
20260906040042 15 258 0.0 3.2 0.00 0.03 0.03 74 1003.4
20260906035551 15 258 0.0 3.2 0.00 0.03 0.03 74 1003.4
20260906035056 15 258 1.6 3.2 0.00 0.03 0.03 74 1003.3
20260906034535 15 258 1.6 3.2 0.00 0.03 0.03 73 1003.4
20260906034035 15 258 1.6 4.8 0.00 0.03 0.03 73 1003.3
20260906033544 15 258 1.6 4.8 0.00 0.03 0.03 73 1003.2
20260906033010 15 258 1.6 4.8 0.00 0.03 0.03 73 1003.2
20260906032526 16 258 1.6 4.8 0.00 0.03 0.03 74 1003.1
20260906032032 16 258 1.6 4.8 0.00 0.03 0.03 73 1003.2
20260906031600 16 258 0.0 3.2 0.00 0.03 0.03 72 1003.1
20260906031007 16 258 0.0 4.8 0.00 0.03 0.03 71 1003.1
20260906030514 16 258 1.6 4.8 0.00 0.03 0.03 71 1003.0
20260906030054 16 258 1.6 4.8 0.00 0.03 0.03 72 1003.0
20260906025600 16 258 1.6 4.8 0.00 0.03 0.03 71 1003.0
20260906025020 16 258 1.6 4.8 0.00 0.03 0.03 70 1003.0
20260906024607 16 258 1.6 4.8 0.00 0.03 0.03 69 1003.0
20260906024055 17 258 0.0 3.2 0.00 0.03 0.03 69 1003.0
20260906023558 17 258 1.6 4.8 0.00 0.03 0.03 69 1003.0
20260906023038 17 258 1.6 6.4 0.00 0.03 0.03 69 1003.0
20260906022547 17 258 1.6 6.4 0.00 0.03 0.03 68 1003.0
20260906022052 17 258 3.2 6.4 0.00 0.03 0.03 68 1003.1
20260906021506 17 258 1.6 6.4 0.00 0.03 0.03 68 1003.0
20260906021023 17 263 1.6 6.4 0.00 0.03 0.03 67 1003.1
20260906020530 17 264 1.6 4.8 0.00 0.03 0.03 66 1003.1
20260906020106 17 264 0.0 0.0 0.00 0.03 0.03 66 1003.1
20260906015510 18 264 0.0 3.2 0.00 0.03 0.03 65 1003.1
20260906015022 18 264 0.0 3.2 0.00 0.03 0.03 64 1003.2
20260906014556 18 264 0.0 4.8 0.00 0.03 0.03 64 1003.1
20260906014007 18 264 1.6 4.8 0.00 0.03 0.03 63 1003.2
20260906013517 18 264 1.6 4.8 0.00 0.03 0.03 63 1003.2
20260906013036 19 270 1.6 3.2 0.00 0.03 0.03 63 1003.3
20260906012546 19 270 0.0 4.8 0.00 0.03 0.03 62 1003.2
20260906012049 19 270 1.6 6.4 0.00 0.03 0.03 61 1003.2
20260906011518 20 305 1.6 6.4 0.00 0.03 0.03 60 1003.2
20260906011034 20 283 1.6 8.0 0.00 0.03 0.03 58 1003.1
20260906010539 20 292 1.6 8.0 0.00 0.03 0.03 59 1003.2
20260906010027 20 302 4.8 8.0 0.00 0.03 0.03 59 1003.1
20260906005527 20 323 1.6 9.7 0.00 0.03 0.03 62 1003.0
20260906005034 20 284 4.8 9.7 0.00 0.03 0.03 64 1003.0
20260906004502 20 9 1.6 9.7 0.00 0.03 0.03 60 1003.0
20260906004015 20 15 3.2 9.7 0.00 0.03 0.03 58 1003.1
20260906003522 20 44 6.4 9.7 0.00 0.03 0.03 59 1003.2
20260906003052 20 67 3.2 9.7 0.00 0.03 0.03 56 1003.2
20260906002557 20 42 4.8 6.4 0.00 0.03 0.03 62 1003.1
20260906002005 20 51 0.0 4.8 0.00 0.03 0.03 60 1003.3
20260906001538 20 54 0.0 3.2 0.00 0.03 0.03 59 1003.2
20260906001032 20 40 0.0 3.2 0.00 0.03 0.03 60 1003.2
20260906000539 20 34 1.6 6.4 0.00 0.03 0.03 59 1003.2
20260906000004 20 34 3.2 6.4 0.00 0.05 0.03 60 1003.1
20260905235518 20 45 3.2 6.4 0.00 0.05 0.03 61 1003.0
20260905235025 20 343 3.2 6.4 0.00 0.05 0.03 61 1003.2
20260905234556 20 332 0.0 4.8 0.00 0.05 0.03 59 1003.2
20260905234102 20 332 1.6 4.8 0.00 0.05 0.03 65 1003.2
20260905233502 20 241 0.0 6.4 0.00 0.05 0.03 61 1003.2
20260905233044 20 236 1.6 8.0 0.00 0.05 0.03 57 1003.3
20260905232551 19 325 3.2 8.0 0.00 0.05 0.03 60 1003.2
20260905232057 19 54 1.6 6.4 0.00 0.05 0.03 61 1003.2
20260905231541 20 322 1.6 4.8 0.00 0.05 0.03 58 1003.3
20260905231039 20 133 0.0 3.2 0.00 0.05 0.03 59 1003.4
20260905230549 20 133 1.6 9.7 0.00 0.05 0.03 57 1003.4
20260905230108 20 139 1.6 9.7 0.00 0.05 0.03 58 1003.5
20260905225505 20 190 1.6 6.4 0.00 0.05 0.03 58 1003.6
20260905225013 20 26 1.6 6.4 0.00 0.05 0.03 57 1003.5
20260905224550 21 45 1.6 6.4 0.00 0.05 0.03 58 1003.5
20260905224056 20 202 0.0 16.1 0.00 0.05 0.03 60 1003.6
20260905223604 20 217 1.6 16.1 0.00 0.05 0.03 61 1003.6
20260905223043 20 61 3.2 9.7 0.00 0.05 0.03 65 1003.7
20260905222544 20 355 6.4 9.7 0.00 0.05 0.03 66 1003.7
20260905222049 20 37 4.8 6.4 0.00 0.05 0.03 63 1003.8
20260905221523 20 63 1.6 4.8 0.00 0.05 0.03 68 1003.9
20260905221034 20 279 1.6 4.8 0.00 0.05 0.03 67 1003.9
20260905220537 20 265 1.6 4.8 0.00 0.05 0.03 64 1003.9
20260905220003 20 57 0.0 4.8 0.00 0.05 0.03 62 1003.9
20260905215523 20 57 1.6 4.8 0.00 0.05 0.03 63 1003.9
20260905215027 20 70 1.6 4.8 0.00 0.05 0.03 63 1003.9
20260905214555 19 70 1.6 4.8 0.00 0.05 0.03 65 1004.0
20260905214001 19 62 1.6 4.8 0.00 0.05 0.03 66 1004.0
20260905213510 19 64 0.0 4.8 0.00 0.05 0.03 68 1004.0
20260905213054 19 55 0.0 9.7 0.00 0.05 0.03 69 1004.0
20260905212555 18 65 3.2 9.7 0.00 0.05 0.03 66 1004.2
20260905212005 18 288 0.0 4.8 0.00 0.05 0.03 68 1004.1
20260905211545 18 298 1.6 6.4 0.00 0.05 0.03 70 1004.2
20260905211047 18 312 1.6 9.7 0.00 0.05 0.03 66 1004.2
20260905210556 18 269 3.2 9.7 0.00 0.05 0.03 66 1004.2
20260905210007 19 53 4.8 6.4 0.00 0.05 0.03 71 1004.3
20260905205513 18 5 0.0 8.0 0.00 0.05 0.03 69 1004.3
20260905205021 19 12 1.6 8.0 0.00 0.05 0.03 69 1004.3
20260905204607 19 51 4.8 8.0 0.00 0.05 0.03 69 1004.3
20260905204016 19 39 1.6 6.4 0.00 0.05 0.03 72 1004.3
20260905203522 18 30 1.6 6.4 0.00 0.05 0.03 68 1004.4
20260905203055 18 105 0.0 4.8 0.00 0.05 0.03 71 1004.4
20260905202555 18 13 0.0 6.4 0.00 0.05 0.03 68 1004.6
20260905202103 17 14 3.2 6.4 0.00 0.05 0.03 70 1004.5
20260905201538 17 311 0.0 4.8 0.00 0.05 0.03 73 1004.5
20260905201029 18 302 1.6 4.8 0.00 0.05 0.03 74 1004.5
20260905200540 18 259 1.6 4.8 0.00 0.05 0.03 67 1004.5
20260905200007 18 254 1.6 4.8 0.00 0.05 0.03 67 1004.6
20260905195526 18 182 1.6 4.8 0.00 0.05 0.03 69 1004.6
20260905195030 18 180 0.0 3.2 0.00 0.05 0.03 70 1004.6
20260905194557 18 180 0.0 3.2 0.00 0.05 0.03 69 1004.6
20260905194003 18 180 0.0 3.2 0.00 0.05 0.03 68 1004.8
20260905193512 17 180 0.0 4.8 0.00 0.05 0.03 69 1004.7
20260905193053 17 178 1.6 6.4 0.00 0.05 0.03 69 1004.7
20260905192600 17 137 1.6 6.4 0.00 0.05 0.03 70 1004.8
20260905192002 17 204 0.0 4.8 0.00 0.05 0.03 73 1004.9
20260905191539 17 203 1.6 6.4 0.00 0.05 0.03 69 1004.8
20260905191045 18 184 3.2 6.4 0.00 0.05 0.03 68 1004.8
20260905190551 17 180 1.6 4.8 0.00 0.05 0.03 70 1004.8
20260905190025 17 84 1.6 4.8 0.00 0.05 0.03 75 1004.9
20260905185531 17 335 0.0 4.8 0.00 0.05 0.03 76 1004.9
20260905185037 17 333 1.6 4.8 0.00 0.05 0.03 74 1005.0
20260905184503 17 360 1.6 6.4 0.00 0.05 0.03 75 1005.0
20260905184009 17 178 1.6 6.4 0.00 0.05 0.03 76 1005.1
20260905183515 17 344 0.0 3.2 0.00 0.05 0.03 81 1005.1
20260905183108 16 248 0.0 3.2 0.00 0.05 0.03 79 1005.1
20260905182557 16 249 1.6 4.8 0.00 0.05 0.03 80 1005.1
20260905182105 16 241 0.0 4.8 0.00 0.05 0.03 82 1005.2
20260905181539 16 267 1.6 4.8 0.00 0.05 0.03 84 1005.2
20260905181045 15 335 0.0 4.8 0.00 0.05 0.03 84 1005.2
20260905180553 15 335 0.0 4.8 0.00 0.05 0.03 85 1005.2
20260905180027 15 271 1.6 6.4 0.00 0.05 0.03 86 1005.2
20260905175535 15 286 3.2 6.4 0.00 0.05 0.03 87 1005.4
20260905175040 15 264 1.6 6.4 0.00 0.05 0.03 87 1005.3
20260905174505 15 282 3.2 6.4 0.00 0.05 0.03 87 1005.4
20260905174013 15 330 0.0 4.8 0.00 0.05 0.03 87 1005.3
20260905173527 15 332 1.6 3.2 0.00 0.05 0.03 87 1005.2
20260905173043 15 332 1.6 3.2 0.00 0.05 0.03 88 1005.3
20260905172550 15 332 0.0 3.2 0.00 0.05 0.03 88 1005.4
20260905172055 14 332 0.0 3.2 0.00 0.05 0.03 89 1005.4
20260905171533 14 332 0.0 6.4 0.00 0.05 0.03 89 1005.4
20260905171040 14 332 3.2 8.0 0.00 0.05 0.03 89 1005.4
20260905170547 14 65 0.0 8.0 0.00 0.05 0.03 89 1005.4
20260905170022 14 51 3.2 6.4 0.00 0.05 0.03 90 1005.4
20260905165526 13 37 1.6 6.4 0.00 0.05 0.03 90 1005.5
20260905165033 13 30 0.0 4.8 0.00 0.05 0.03 90 1005.4
20260905164504 13 18 1.6 4.8 0.00 0.05 0.03 90 1005.5
20260905164013 13 15 3.2 6.4 0.00 0.05 0.03 90 1005.4
20260905163523 13 67 3.2 6.4 0.00 0.05 0.03 90 1005.5
20260905163059 13 13 1.6 4.8 0.00 0.05 0.03 90 1005.5
20260905162519 13 9 1.6 4.8 0.00 0.05 0.03 90 1005.5
20260905162012 13 5 1.6 4.8 0.00 0.05 0.03 90 1005.4
20260905161547 13 41 0.0 6.4 0.00 0.05 0.03 90 1005.4
20260905161058 13 41 0.0 6.4 0.00 0.05 0.03 91 1005.4
20260905160506 13 39 4.8 6.4 0.00 0.05 0.03 91 1005.2
20260905160024 13 14 3.2 6.4 0.00 0.08 0.03 91 1005.3
20260905155529 13 14 1.6 6.4 0.00 0.08 0.03 91 1005.4
20260905155036 13 24 3.2 6.4 0.00 0.08 0.03 91 1005.4
20260905154544 13 63 0.0 4.8 0.00 0.08 0.03 91 1005.4
20260905154052 13 63 1.6 4.8 0.00 0.08 0.03 91 1005.4
20260905153556 12 86 0.0 4.8 0.00 0.08 0.03 91 1005.3
20260905153028 12 115 0.0 0.0 0.00 0.08 0.03 91 1005.3
20260905152534 12 115 0.0 0.0 0.00 0.08 0.03 91 1005.4
20260905152043 12 115 0.0 0.0 0.00 0.08 0.03 91 1005.4
20260905151607 12 115 0.0 0.0 0.00 0.08 0.03 91 1005.3
20260905151018 12 115 0.0 0.0 0.00 0.08 0.03 91 1005.4
20260905150524 12 115 0.0 0.0 0.00 0.08 0.03 91 1005.3
20260905150054 12 115 0.0 0.0 0.00 0.08 0.03 91 1005.4
20260905145553 12 115 0.0 0.0 0.00 0.08 0.03 91 1005.4
20260905145058 12 115 0.0 0.0 0.00 0.08 0.03 90 1005.4
20260905144535 12 115 0.0 0.0 0.00 0.08 0.03 90 1005.4
20260905144032 12 115 0.0 0.0 0.00 0.08 0.03 90 1005.5
20260905143542 12 115 0.0 0.0 0.00 0.08 0.03 90 1005.5
20260905143055 12 115 0.0 0.0 0.00 0.08 0.03 90 1005.4
20260905142558 12 115 0.0 0.0 0.00 0.08 0.03 90 1005.2
20260905142056 11 115 0.0 0.0 0.00 0.08 0.03 90 1005.3
20260905141509 11 115 0.0 0.0 0.00 0.08 0.03 90 1005.1
20260905141016 11 115 0.0 0.0 0.00 0.08 0.03 90 1005.1
20260905140524 11 115 0.0 0.0 0.00 0.08 0.03 90 1005.1
20260905140046 11 115 0.0 0.0 0.00 0.08 0.03 90 1005.1
20260905135544 11 115 0.0 0.0 0.00 0.08 0.03 90 1005.1
20260905135048 11 115 0.0 0.0 0.00 0.08 0.03 90 1005.0
20260905134527 11 115 0.0 0.0 0.00 0.08 0.03 90 1005.1
20260905134026 11 115 0.0 0.0 0.00 0.08 0.03 90 1005.1
20260905133534 11 115 0.0 0.0 0.00 0.08 0.03 90 1005.0
20260905133057 11 115 0.0 0.0 0.00 0.08 0.03 90 1005.1
20260905132502 11 115 0.0 0.0 0.00 0.08 0.03 90 1004.9
20260905132021 11 115 0.0 0.0 0.00 0.08 0.03 90 1005.0
20260905131554 11 115 0.0 0.0 0.00 0.08 0.03 90 1005.0
20260905131054 11 115 0.0 0.0 0.00 0.08 0.03 90 1005.0
20260905130601 11 115 0.0 0.0 0.00 0.08 0.03 90 1004.9
20260905130010 11 115 0.0 0.0 0.00 0.10 0.03 90 1004.8
20260905125512 11 115 0.0 0.0 0.00 0.10 0.03 90 1004.9
20260905125021 11 115 0.0 0.0 0.00 0.10 0.03 90 1004.8
20260905124557 11 115 0.0 0.0 0.00 0.10 0.03 90 1004.8
20260905124054 11 115 0.0 0.0 0.00 0.10 0.03 90 1004.8
20260905123600 11 115 0.0 0.0 0.00 0.10 0.03 90 1004.8
20260905123034 11 115 0.0 0.0 0.00 0.10 0.03 90 1004.7
20260905122540 11 115 0.0 0.0 0.00 0.10 0.03 90 1004.6
20260905122041 11 115 0.0 0.0 0.00 0.10 0.03 90 1004.7
20260905121508 11 115 0.0 0.0 0.00 0.10 0.03 90 1004.6
20260905121026 11 115 0.0 0.0 0.00 0.10 0.03 90 1004.6
20260905120523 11 115 0.0 0.0 0.00 0.10 0.03 90 1004.5
20260905120048 11 115 0.0 0.0 0.00 0.23 0.03 90 1004.6
20260905115558 11 115 0.0 0.0 0.00 0.23 0.03 90 1004.6
20260905115104 11 115 0.0 0.0 0.00 0.23 0.03 90 1004.7
20260905114542 11 115 0.0 0.0 0.00 0.23 0.03 90 1004.6
20260905114042 11 115 0.0 0.0 0.00 0.23 0.03 90 1004.6
20260905113552 11 115 0.0 0.0 0.00 0.23 0.03 90 1004.6
20260905113020 11 115 0.0 0.0 0.00 0.23 0.03 90 1004.6
20260905112529 11 115 0.0 0.0 0.00 0.23 0.03 90 1004.6
20260905112034 11 115 0.0 0.0 0.00 0.23 0.03 90 1004.5
20260905111554 11 115 0.0 0.0 0.00 0.23 0.03 90 1004.5
20260905111056 11 115 0.0 0.0 0.00 0.23 0.03 90 1004.4
20260905110515 11 115 0.0 0.0 0.00 0.23 0.03 90 1004.5
20260905110048 11 115 0.0 0.0 0.00 0.28 0.03 90 1004.4
20260905105548 11 115 0.0 0.0 0.00 0.28 0.03 90 1004.5
20260905105056 11 115 0.0 0.0 0.00 0.28 0.03 90 1004.4
20260905104522 11 115 0.0 0.0 0.00 0.28 0.03 90 1004.5
20260905104019 11 115 0.0 0.0 0.00 0.28 0.03 90 1004.6
20260905103530 11 115 0.0 0.0 0.00 0.28 0.03 90 1004.6
20260905103059 11 115 0.0 0.0 0.00 0.28 0.03 90 1004.5
20260905102559 11 115 0.0 0.0 0.00 0.28 0.03 90 1004.6
20260905102002 11 115 0.0 0.0 0.00 0.28 0.03 90 1004.6
20260905101540 12 115 0.0 0.0 0.00 0.28 0.03 90 1004.7
20260905101045 11 115 0.0 0.0 0.00 0.28 0.03 90 1004.7
20260905100546 12 115 0.0 0.0 0.00 0.28 0.03 90 1004.7
20260905100015 12 115 0.0 0.0 0.00 0.28 0.03 90 1004.7
20260905095528 12 115 0.0 0.0 0.03 0.28 0.03 90 1004.7
20260905095032 12 115 0.0 0.0 0.03 0.28 0.03 90 1004.6
20260905094602 12 115 0.0 0.0 0.03 0.28 0.03 90 1004.6
20260905094006 12 115 0.0 0.0 0.03 0.28 0.03 90 1004.6
20260905093511 12 115 0.0 0.0 0.03 0.28 0.03 90 1004.6
20260905093028 12 115 0.0 0.0 0.03 0.28 0.03 90 1004.6
20260905092534 11 115 0.0 0.0 0.03 0.28 0.03 90 1004.5
20260905092044 11 115 0.0 0.0 0.03 0.28 0.03 90 1004.5
20260905091508 11 115 0.0 0.0 0.03 0.28 0.03 90 1004.5
20260905091024 11 115 0.0 0.0 0.03 0.28 0.03 90 1004.4
20260905090531 11 115 0.0 0.0 0.03 0.28 0.03 90 1004.4
20260905090131 11 115 0.0 0.0 0.03 0.28 0.03 90 1004.4
20260905085504 11 115 0.0 0.0 0.00 0.25 0.00 90 1004.3
20260905085019 11 115 0.0 0.0 0.00 0.25 0.00 90 1004.4
20260905084538 11 115 0.0 0.0 0.00 0.25 0.00 90 1004.4
20260905084041 11 115 0.0 0.0 0.00 0.25 0.00 89 1004.3
20260905083549 11 115 0.0 0.0 0.00 0.25 0.00 89 1004.2
20260905083028 11 115 0.0 0.0 0.00 0.25 0.00 89 1004.2
20260905082528 11 115 0.0 0.0 0.00 0.25 0.00 89 1004.2
20260905082034 11 115 0.0 0.0 0.00 0.25 0.00 89 1004.1
20260905081600 11 115 0.0 0.0 0.00 0.25 0.00 89 1004.1
20260905081112 11 115 0.0 0.0 0.00 0.25 0.00 89 1004.1
20260905080514 11 115 0.0 0.0 0.00 0.25 0.00 89 1004.0
20260905080026 11 115 0.0 0.0 0.00 0.25 0.00 89 1004.1
20260905075536 11 115 0.0 0.0 0.00 0.25 0.00 89 1004.1
20260905075038 11 115 0.0 0.0 0.00 0.25 0.00 89 1004.1
20260905074509 11 115 0.0 0.0 0.00 0.25 0.00 89 1004.1
20260905074013 11 115 0.0 0.0 0.00 0.25 0.00 89 1004.0
20260905073528 11 115 0.0 0.0 0.00 0.25 0.00 89 1004.0
20260905073039 11 115 0.0 0.0 0.00 0.25 0.00 89 1004.0
20260905072545 11 115 0.0 0.0 0.00 0.25 0.00 89 1003.9
20260905072051 11 115 0.0 0.0 0.00 0.25 0.00 89 1004.0
20260905071520 11 115 0.0 0.0 0.00 0.25 0.00 89 1004.0
20260905071027 11 115 0.0 0.0 0.00 0.25 0.00 89 1004.0
20260905070531 11 115 0.0 0.0 0.00 0.25 0.00 89 1004.1
20260905070047 11 115 0.0 0.0 0.00 0.25 0.25 89 1004.0
20260905065544 11 115 0.0 0.0 0.00 0.25 0.25 88 1003.9
20260905065046 11 115 0.0 0.0 0.00 0.25 0.25 88 1003.8
20260905064558 11 115 0.0 0.0 0.00 0.25 0.25 88 1003.8
20260905064101 11 115 0.0 0.0 0.00 0.25 0.25 88 1003.8
20260905063506 11 115 0.0 1.6 0.00 0.25 0.25 88 1003.6
20260905063040 11 115 0.0 3.2 0.00 0.25 0.25 88 1003.7
20260905062545 11 115 1.6 4.8 0.00 0.25 0.25 88 1003.7
20260905062050 11 115 1.6 4.8 0.00 0.25 0.25 88 1003.5
20260905061537 11 115 1.6 4.8 0.00 0.25 0.25 88 1003.5
20260905061026 11 115 1.6 4.8 0.00 0.25 0.25 88 1003.5
20260905060537 11 115 0.0 0.0 0.00 0.25 0.25 88 1003.5
20260905060008 11 115 0.0 0.0 0.00 0.25 0.25 88 1003.6
20260905055524 11 115 0.0 0.0 0.00 0.25 0.25 88 1003.6
20260905055021 11 115 0.0 0.0 0.00 0.25 0.25 88 1003.6
20260905054548 11 115 0.0 0.0 0.00 0.25 0.25 88 1003.5
20260905054057 11 115 0.0 0.0 0.00 0.25 0.25 88 1003.6
20260905053558 11 115 0.0 0.0 0.00 0.25 0.25 88 1003.6
20260905053014 11 115 0.0 0.0 0.00 0.25 0.25 88 1003.6
20260905052526 11 115 0.0 0.0 0.00 0.25 0.25 88 1003.6
20260905052024 11 115 0.0 0.0 0.00 0.25 0.25 88 1003.7
20260905051556 11 115 0.0 0.0 0.00 0.25 0.25 88 1003.6
20260905051101 11 115 0.0 0.0 0.00 0.25 0.25 88 1003.6
20260905050508 12 115 0.0 0.0 0.00 0.25 0.25 88 1003.6